Regional Weather Roundup
Issued by NWS Bismarck, ND

Home | Current Version | Previous Version | Text Only | Print | Product List | Glossary On
Versions: 1 2 3 4 5 6 7 8 9 10 11 12 13 14 15 16 17 18 19 20 21 22 23 24 25 26 27 28 29 30 31 32 33 34 35 36 37 38 39 40 41 42 43 44 45 46 47 48 49 50
321
ASUS43 KBIS 050310
RWRBIS

NWR BROADCAST TEXT
NATIONAL WEATHER SERVICE BISMARCK ND
1000 PM CDT WED MAY 04 2016

NOTE: "FAIR" INDICATES FEW OR NO CLOUDS BELOW 12,000 FEET WITH NO
SIGNIFICANT WEATHER AND/OR OBSTRUCTIONS TO VISIBILITY.


CITY           SKY/WX    TMP DP  RH WIND       PRES   REMARKS
WILLISTON      CLEAR     62  42  47 CALM      29.85S
MINOT          CLEAR     75  38  26 SW5       29.87R
MINOT AFB      NOT AVBL
BISMARCK       CLEAR     60  46  59 SE7       29.95R
DICKINSON      CLEAR     56  40  55 S8        29.93R
GARRISON         N/A     63  43  48 S6        29.90R
HETTINGER ARPT CLEAR     60  43  53 S10       29.99S
JAMESTOWN      CLEAR     57  39  51 S8        29.95S
BEACH          FAIR      59  39  47 S10       29.96R
CARRINGTON     FAIR      59  41  51 S10       29.95F
HAZEN          FAIR      63  45  51 S10       29.92S
LINTON         FAIR      63  48  59 S14       30.00R
MANDAN         FAIR      63  45  51 S10       29.96S
OAKES            N/A    N/A N/A N/A MISG        N/A
RUGBY          FAIR      66  45  45 S10       29.87S
STANLEY        FAIR      59  37  44 CALM      29.91R
TIOGA          FAIR      57  39  51 S12       29.92S
WATFORD CITY     N/A     66  39  37 S10       29.88S
$$

CITY           SKY/WX    TMP DP  RH WIND       PRES   REMARKS
GRAND FORKS    MOCLDY    59  29  31 S8        29.92F
GRAND FORKS AF PTCLDY    59  30  33 SE10      29.92F
DEVILS LAKE    CLEAR     63  40  42 S7        29.91S
FARGO          PTCLDY    57  28  33 S3        29.96S
CANDO          FAIR      59  39  47 S9        29.91S
CAVALIER       FAIR      61  37  41 S13       29.88S
GRAFTON        FAIR      59  34  38 S10       29.91F
GWINNER        FAIR      57  36  44 SE7       29.99S
LANGDON        FAIR      57  34  41 S15       29.90S
ROLLA          FAIR      59  37  44 SW10      29.89S
WALHALLA       FAIR      64  37  36 S8        29.87S
$$

CITY           SKY/WX    TMP DP  RH WIND       PRES   REMARKS
ABERDEEN       CLEAR     56  36  47 SE5       29.99R
MOBRIDGE       CLEAR     59  47  64 SE6       29.98R
BUFFALO          N/A     63  43  48 SE13      29.92S
RAPID CITY     CLEAR     56  43  61 SE6       30.01S
GLASGOW        CLEAR     69  41  36 SE7       29.82S
SIDNEY         CLEAR     68  39  34 S6        29.86S
WOLF POINT     CLEAR     66  47  50 NE5       29.83R
GLENDIVE       CLEAR     73  37  27 S6        29.91R
MILES CITY     CLOUDY    75  36  24 S5        29.88R
BAKER          CLEAR     63  44  50 S14       29.95R
$$

CITY           SKY/WX    TMP DP  RH WIND       PRES   REMARKS
BILLINGS       CLOUDY    74  39  28 SE6       29.91S
GREAT FALLS    CLEAR     64  39  39 W5        29.87F
REGINA         PTCLDY    72  30  21 SW8       29.77R
ESTEVAN        PTCLDY    64  41  42 S8        29.83S
$$





USA.gov is the U.S. government's official web portal to all federal, state and local government web resources and services.